Date String (YYYY-MM-DD hh:mm:ss) UTC,Instrument flags,Ambient pressure (hPa),Sample flow (lpm),Bypass flow (lpm),Sample temperature (°C),Ambient temperature (°C),ASC tube jacket temperature (°C),LED temperature (°C),Box temperature (°C),Sample RH (%),Span deviation,Mass concentration (μg/m³),Mass concentration (μg/m³),Mass concentration (μg/m³)
DateTimeUTC,F1_M11,P_M11,Q1_M11,Q2_M11,T1_M11,T2_M11,T3_M11,T4_M11,T5_M11,U1_M11,ZSPAN_M11,X0_M11,X2_M11,X1_M11
2021-12-03 03:00:00,,0826.1,5.00,0.00,30.5,29.5,00.0,39.5,32.1,07.5,0000.0,0008.77,0001.89,0000.69
2021-12-03 03:01:00,,0826.2,5.01,0.00,30.5,29.5,00.0,39.5,32.1,07.5,0000.0,0007.85,0001.80,0000.66
2021-12-03 03:02:00,,0826.2,5.00,0.00,30.5,29.5,00.0,39.5,32.1,07.5,0000.0,0007.68,0001.75,0000.64
2021-12-03 03:03:00,,0826.2,5.00,0.00,30.5,29.5,00.0,39.5,32.2,07.5,0000.0,0007.51,0001.70,0000.62
2021-12-03 03:04:00,,0826.2,5.00,0.00,30.5,29.5,00.0,39.5,32.2,07.5,0000.0,0006.07,0001.64,0000.59
2021-12-03 03:05:00,,0826.2,5.00,0.00,30.5,29.5,00.0,39.5,32.2,07.5,0000.0,0005.21,0001.58,0000.56
2021-12-03 03:06:00,,0826.2,5.01,0.00,30.5,29.5,00.0,39.5,32.2,07.5,0000.0,0004.66,0001.53,0000.53
2021-12-03 03:07:00,,0826.1,5.02,0.00,30.5,29.5,00.0,39.5,32.2,07.5,0000.0,0005.23,0001.47,0000.50
2021-12-03 03:08:00,,0826.2,4.99,0.00,30.5,29.6,00.0,39.5,32.2,07.5,0000.0,0005.77,0001.39,0000.47
2021-12-03 03:09:00,,0826.2,5.00,0.00,30.5,29.6,00.0,39.5,32.2,07.5,0000.0,0005.50,0001.28,0000.44
2021-12-03 03:10:00,,0826.2,5.00,0.00,30.5,29.6,00.0,39.5,32.2,07.5,0000.0,0005.39,0001.23,0000.41
2021-12-03 03:11:00,,0826.2,4.99,0.00,30.5,29.6,00.0,39.5,32.2,07.5,0000.0,0005.12,0001.11,0000.39
2021-12-03 03:12:00,,0826.2,5.00,0.00,30.5,29.5,00.0,39.5,32.2,07.5,0000.0,0005.59,0001.06,0000.38
2021-12-03 03:13:00,,0826.1,5.00,0.00,30.6,29.5,00.0,39.5,32.2,07.5,0000.0,0006.92,0001.01,0000.35
2021-12-03 03:14:00,,0826.2,5.01,0.00,30.6,29.5,00.0,39.5,32.2,07.5,0000.0,0006.36,0000.91,0000.33
2021-12-03 03:15:00,,0826.2,5.00,0.00,30.6,29.6,00.0,39.5,32.2,07.5,0000.0,0006.21,0000.83,0000.32
2021-12-03 03:16:00,,0826.2,4.99,0.00,30.6,29.6,00.0,39.5,32.2,07.5,0000.0,0007.04,0000.79,0000.32
2021-12-03 03:17:00,,0826.2,5.01,0.00,30.6,29.6,00.0,39.5,32.2,07.5,0000.0,0006.97,0000.76,0000.32
2021-12-03 03:18:00,,0826.2,5.00,0.00,30.6,29.6,00.0,39.5,32.2,07.5,0000.0,0006.39,0000.75,0000.32
2021-12-03 03:19:00,,0826.2,4.99,0.00,30.6,28.7,00.0,39.5,32.0,07.5,0000.0,0005.37,0000.72,0000.32
2021-12-03 03:20:00,,0826.2,5.01,0.00,30.4,26.6,00.0,39.5,31.6,07.6,0000.0,0005.38,0000.69,0000.34
2021-12-03 03:21:00,,0826.2,4.99,0.00,30.3,26.3,00.0,39.4,31.5,07.6,0000.0,0005.38,0000.67,0000.35
2021-12-03 03:22:00,,0826.2,4.99,0.00,30.1,26.6,00.0,39.4,31.4,07.6,0000.0,0005.35,0000.65,0000.33
2021-12-03 03:23:00,,0826.2,5.00,0.00,30.1,27.1,00.0,39.3,31.4,07.7,0000.0,0004.85,0000.65,0000.32
2021-12-03 03:24:00,,0826.2,5.01,0.00,30.0,27.5,00.0,39.3,31.5,07.7,0000.0,0002.55,0000.64,0000.34
2021-12-03 03:25:00,,0826.2,4.99,0.00,30.0,27.8,00.0,39.2,31.5,07.7,0000.0,0002.77,0000.69,0000.35
2021-12-03 03:26:00,,0826.1,5.00,0.00,30.0,28.1,00.0,39.2,31.6,07.7,0000.0,0003.55,0000.72,0000.36
2021-12-03 03:27:00,,0826.1,5.00,0.00,30.0,28.3,00.0,39.2,31.6,07.7,0000.0,0003.20,0000.70,0000.35
2021-12-03 03:28:00,,0826.1,5.01,0.00,30.0,28.4,00.0,39.2,31.6,07.7,0000.0,0003.08,0000.65,0000.33
2021-12-03 03:29:00,,0826.2,5.00,0.00,30.0,28.5,00.0,39.1,31.6,07.7,0000.0,0002.86,0000.56,0000.30
2021-12-03 03:30:00,,0826.1,5.00,0.00,30.0,28.6,00.0,39.1,31.6,07.7,0000.0,0002.63,0000.52,0000.28
2021-12-03 03:31:00,,0826.1,5.00,0.00,30.0,28.6,00.0,39.1,31.7,07.7,0000.0,0002.44,0000.48,0000.26
2021-12-03 03:32:00,,0826.2,5.01,0.00,30.1,28.7,00.0,39.1,31.7,07.7,0000.0,0002.34,0000.45,0000.25
2021-12-03 03:33:00,,0826.2,4.99,0.00,30.1,28.8,00.0,39.1,31.7,07.6,0000.0,0002.31,0000.44,0000.25
2021-12-03 03:34:00,,0826.2,5.01,0.00,30.1,28.8,00.0,39.1,31.7,07.6,0000.0,0002.25,0000.40,0000.23
2021-12-03 03:35:00,,0826.2,5.00,0.00,30.1,28.9,00.0,39.1,31.7,07.7,0000.0,0002.17,0000.36,0000.21
2021-12-03 03:36:00,,0826.2,5.00,0.00,30.1,28.9,00.0,39.1,31.8,07.7,0000.0,0001.94,0000.31,0000.19
2021-12-03 03:37:00,,0826.2,5.01,0.00,30.1,28.9,00.0,39.1,31.8,07.7,0000.0,0001.08,0000.30,0000.18
2021-12-03 03:38:00,,0826.2,5.00,0.00,30.1,28.9,00.0,39.1,31.8,07.7,0000.0,0000.54,0000.31,0000.18
2021-12-03 03:39:00,,0826.2,4.99,0.00,30.1,28.9,00.0,39.1,31.8,07.7,0000.0,0000.59,0000.33,0000.18
2021-12-03 03:40:00,,0826.1,5.00,0.00,30.1,28.9,00.0,39.1,31.8,07.7,0000.0,0000.61,0000.34,0000.19
2021-12-03 03:41:00,,0826.2,5.01,0.00,30.1,28.9,00.0,39.1,31.9,07.7,0000.0,0000.60,0000.34,0000.19
2021-12-03 03:42:00,,0826.1,4.98,0.00,30.2,29.0,00.0,39.1,31.9,07.8,0000.0,0000.58,0000.33,0000.18
2021-12-03 03:43:00,,0826.2,5.01,0.00,30.2,29.0,00.0,39.1,31.9,07.9,0000.0,0000.58,0000.32,0000.18
2021-12-03 03:44:00,,0826.1,4.99,0.00,30.2,29.1,00.0,39.1,31.9,07.8,0000.0,0000.59,0000.31,0000.17
2021-12-03 03:45:00,,0826.1,5.02,0.00,30.2,29.1,00.0,39.1,31.9,07.8,0000.0,0000.58,0000.30,0000.17
2021-12-03 03:46:00,,0826.1,5.00,0.00,30.2,29.1,00.0,39.1,31.9,07.8,0000.0,0000.56,0000.29,0000.17
2021-12-03 03:47:00,,0826.1,5.00,0.00,30.2,29.1,00.0,39.2,31.9,07.8,0000.0,0000.58,0000.30,0000.18
2021-12-03 03:48:00,,0826.2,5.00,0.00,30.2,29.1,00.0,39.2,31.9,07.8,0000.0,0000.50,0000.27,0000.17
2021-12-03 03:49:00,,0826.1,5.00,0.00,30.2,29.2,00.0,39.2,31.9,07.9,0000.0,0000.48,0000.25,0000.16
2021-12-03 03:50:00,,0826.2,5.00,0.00,30.2,29.2,00.0,39.2,31.9,07.9,0000.0,0000.43,0000.23,0000.16
2021-12-03 03:51:00,,0826.1,5.00,0.00,30.2,29.2,00.0,39.2,31.9,07.9,0000.0,0000.41,0000.23,0000.15
2021-12-03 03:52:00,,0826.2,4.99,0.00,30.2,29.2,00.0,39.2,31.9,08.0,0000.0,0000.42,0000.23,0000.15
2021-12-03 03:53:00,,0826.2,5.02,0.00,30.3,29.2,00.0,39.2,31.9,08.0,0000.0,0000.44,0000.24,0000.15
2021-12-03 03:54:00,,0826.1,4.98,0.00,30.3,29.2,00.0,39.2,31.9,08.0,0000.0,0000.42,0000.24,0000.15
2021-12-03 03:55:00,,0826.1,5.00,0.00,30.3,29.2,00.0,39.2,32.0,08.0,0000.0,0000.40,0000.24,0000.15
2021-12-03 03:56:00,,0826.2,5.00,0.00,30.3,29.2,00.0,39.2,32.0,08.1,0000.0,0000.36,0000.23,0000.15
2021-12-03 03:57:00,,0826.2,5.01,0.00,30.3,29.3,00.0,39.2,32.0,08.1,0000.0,0000.34,0000.22,0000.14
2021-12-03 03:58:00,,0826.1,5.01,0.00,30.3,29.3,00.0,39.2,32.0,08.1,0000.0,0000.31,0000.21,0000.13
2021-12-03 03:59:00,,0826.1,4.99,0.00,30.3,29.3,00.0,39.2,32.0,08.1,0000.0,0000.29,0000.19,0000.13
